This is the latest recevied weather packets stored in our database for station/object DG3RAP-11. If no packets are shown the sender has not sent any weather packets the latest 10 day(s).
| Time | Temp. | Humidity | Pressure | Rain* | Wind** | Luminosity | Snow |
|---|---|---|---|---|---|---|---|
| 1777649223 | 20° C | 34% | 1024.8 hPa | 0 mm | - | - | - |
| 1777648683 | 20° C | 36% | 1024.7 hPa | 0 mm | - | - | - |
| 1777648143 | 21.67° C | 34% | 1025.1 hPa | 0 mm | - | - | - |
| 1777647604 | 21.67° C | 33% | 1025 hPa | 0 mm | - | - | - |
| 1777647243 | 21.11° C | 34% | 1025.2 hPa | 0 mm | - | - | - |
| 1777646703 | 21.11° C | 34% | 1025.1 hPa | 0 mm | - | - | - |
| 1777646163 | 21.67° C | 34% | 1025.2 hPa | 0 mm | - | - | - |
| 1777645624 | 21.11° C | 34% | 1025.4 hPa | 0 mm | - | - | - |
| 1777645083 | 20.56° C | 34% | 1025.5 hPa | 0 mm | - | - | - |
| 1777644543 | 19.44° C | 34% | 1025.5 hPa | 0 mm | - | - | - |
| 1777644003 | 21.11° C | 33% | 1025.4 hPa | 0 mm | - | - | - |
| 1777643644 | 21.11° C | 33% | 1025.7 hPa | 0 mm | - | - | - |
| 1777643103 | 20.56° C | 33% | 1025.7 hPa | 0 mm | - | - | - |
| 1777642563 | 20.56° C | 33% | 1025.8 hPa | 0 mm | - | - | - |
| 1777642023 | 20.56° C | 34% | 1025.8 hPa | 0 mm | - | - | - |
| 1777641483 | 20.56° C | 34% | 1025.7 hPa | 0 mm | - | - | - |
| 1777640944 | 20° C | 33% | 1026.1 hPa | 0 mm | - | - | - |
| 1777640404 | 19.44° C | 34% | 1026.4 hPa | 0 mm | - | - | - |
| 1777640043 | 19.44° C | 34% | 1026.4 hPa | 0 mm | - | - | - |
| 1777639503 | 19.44° C | 34% | 1026.2 hPa | 0 mm | - | - | - |
| 1777638963 | 18.33° C | 36% | 1026.5 hPa | 0 mm | - | - | - |
| 1777638424 | 19.44° C | 34% | 1026.6 hPa | 0 mm | - | - | - |
| 1777637883 | 18.89° C | 35% | 1026.6 hPa | 0 mm | - | - | - |
| 1777637343 | 19.44° C | 33% | 1026.6 hPa | 0 mm | - | - | - |
| 1777636803 | 18.89° C | 35% | 1026.7 hPa | 0 mm | - | - | - |
* Rain latest hour (hover to see other rain measurements)
** Current wind speed in m/s (hover to see current wind gust speed)